Regional Weather Roundup
Issued by NWS

Home | Current Version | Previous Version | Graphics & Text | Print | Product List | Glossary On
Versions: 1 2 3 4 5 6 7 8 9 10 11 12 13 14 15 16 17 18 19 20 21 22 23 24 25 26 27 28 29 30 31 32 33 34 35 36 37 38 39 40 41 42 43 44 45 46 47 48 49 50
000
ASUS43 KLMK 251510
RWRKY
KENTUCKY REGIONAL WEATHER ROUNDUP
NATIONAL WEATHER SERVICE LOUISVILLE KY
1100 AM EDT SUN JUN 25 2017

NOTE "FAIR" INDICATES FEW OR NO CLOUDS BELOW 12,000 FEET
WITH NO SIGNIFICANT WEATHER AND/OR OBSTRUCTIONS TO VISIBILITY.

KYZ001>023-026-027-061>063-070>075-251600-
WESTERN AND SOUTH CENTRAL KENTUCKY

CITY           SKY/WX    TMP DP  RH WIND       PRES   REMARKS
PADUCAH        SUNNY     77  53  43 NW6       30.23R
HENDERSON      SUNNY     76  54  46 W8        30.22S
OWENSBORO      SUNNY     76  56  49 W9        30.22S
HOPKINSVILLE   SUNNY     74  49  40 N6        30.24S
BOWLING GREEN  SUNNY     75  52  44 VRB3      30.24R
GLASGOW        SUNNY     74  49  41 NW3       30.23S
$$

KYZ024-025-028>034-038-045-046-053-251600-
NORTH CENTRAL KENTUCKY

CITY           SKY/WX    TMP DP  RH WIND       PRES   REMARKS
LOUISVILLE/SDF SUNNY     77  48  35 W12       30.19S
LOUISVILLE/LOU SUNNY     76  49  38 W10       30.20S
FORT KNOX      SUNNY     73  53  48 SW8       30.20S
$$

KYZ035>037-039>044-047>052-055>060-089>105-251600-
NORTHEAST KENTUCKY

CITY           SKY/WX    TMP DP  RH WIND       PRES   REMARKS
LEXINGTON      SUNNY     74  49  41 W8        30.21S
COVINGTON      SUNNY     72  50  45 W15       30.17R
FRANKFORT      SUNNY     74  50  42 VRB7      30.19S
$$

KYZ054-064>069-076>088-106>120-251600-
SOUTHEAST KENTUCKY

CITY           SKY/WX    TMP DP  RH WIND       PRES   REMARKS
JACKSON        SUNNY     70  52  52 CALM      30.22S
LONDON         SUNNY     73  45  36 N9        30.23S
SOMERSET       SUNNY     72  46  40 NW6       30.24S
MIDDLESBORO    CLOUDY    72  54  53 N3        30.23S
MONTICELLO     SUNNY     73  50  44 N16G22    30.25S
$$





USA.gov is the U.S. government's official web portal to all federal, state and local government web resources and services.